Regional Weather Roundup
Issued by NWS

Home | Current Version | Previous Version | Graphics & Text | Print | Product List | Glossary On
Versions: 1 2 3 4 5 6 7 8 9 10 11 12 13 14 15 16 17 18 19 20 21 22 23 24 25 26 27
000
ASUS45 KPSR 030410
RWRAZ

ARIZONA HOURLY REGIONAL WEATHER ROUNDUP
NATIONAL WEATHER SERVICE PHOENIX AZ
900 PM MST FRI DEC 02 2016

NOTE: FAIR INDICATES FEW OR NO CLOUDS BELOW 12,000 FEET WITH NO
SIGNIFICANT WEATHER AND/OR OBSTRUCTIONS TO VISIBILITY.

AZZ001>003-036-030500-
NORTHWEST ARIZONA

CITY           SKY/WX    TMP DP  RH WIND       PRES   REMARKS
BULLHEAD CITY  CLEAR     55  16  21 N26G36    30.07R
KINGMAN        CLEAR     40  12  32 N15       30.07R WCI  32
$$

AZZ004>008-015-016-018-030500-
NORTH CENTRAL ARIZONA

CITY           SKY/WX    TMP DP  RH WIND       PRES   REMARKS
GRAND CANYON   CLEAR    N/A N/A N/A E7        30.07R
PRESCOTT       CLEAR     31  25  78 CALM      30.01R
FLAGSTAFF      PTCLDY    27  17  66 E12       30.02R WCI  17
PAYSON         CLEAR     37  19  48 N16       30.01S WCI  28
PAGE           CLEAR     39  12  33 N5        30.12R
$$

AZZ009>014-017-030500-
NORTHEAST ARIZONA

CITY           SKY/WX    TMP DP  RH WIND       PRES   REMARKS
WINSLOW        PTCLDY    33  19  56 NW8       30.05R WCI  26
SAINT JOHNS    CLEAR     31  18  58 W8        29.98S WCI  23
WINDOW ROCK    CLOUDY    31  19  61 N9        30.04R WCI  23
SHOW LOW       CLEAR     27  16  63 CALM      30.02S
$$

AZZ023-030500-
GREATER PHOENIX AREA

CITY           SKY/WX    TMP DP  RH WIND       PRES   REMARKS
PHOENIX        MOCLDY    55  26  32 W7        29.90F
BUCKEYE          N/A     46  32  57 NE6       29.94S
LUKE AFB       PTCLDY    49  32  51 NW7       29.91S
DEER VALLEY    MOCLDY    50  27  40 NW5       29.91F
SCOTTSDALE     CLOUDY    54  29  38 N7        29.92F
MESA-GATEWAY   CLEAR     48  28  46 W7        29.91F
CHANDLER       CLEAR     52  28  40 NW6       29.91F
$$

AZZ027-028-030500-
SOUTHWEST MARICOPA COUNTY AND PINAL COUNTY

CITY           SKY/WX    TMP DP  RH WIND       PRES   REMARKS
CASA GRANDE    NOT AVBL
$$

AZZ503-504-507>509-030500-
SOUTHEAST ARIZONA

CITY           SKY/WX    TMP DP  RH WIND       PRES   REMARKS
TUCSON         CLOUDY    51  22  31 NW7       29.92R
DAVIS-MONTHAN  CLOUDY    49  20  32 NW6       29.90R
NOGALES        MOCLDY    41  37  86 CALM      29.89S
SIERRA VISTA   LGT RAIN  41  25  52 SW9       29.91S
DOUGLAS        RAIN      44  42  93 S5        29.91R FOG
SAFFORD        CLOUDY    49  18  29 N6        29.90R
$$

AZZ020-021-025-026-031-030500-
SOUTHWEST ARIZONA

CITY           SKY/WX    TMP DP  RH WIND       PRES   REMARKS
YUMA           CLEAR     58  20  22 N13       29.97S
$$

CAZ031-033-041-043-047-048-061-030500-
SOUTHERN CALIFORNIA

CITY           SKY/WX    TMP DP  RH WIND       PRES   REMARKS
DOWNTOWN L.A.  CLEAR     53  14  21 CALM      30.05R
L.A. AIRPORT   CLEAR     60   8  12 SE6       30.06R
SAN DIEGO      PTCLDY    60  12  15 NE7       30.02R
BURBANK        CLEAR     57   3  11 N13       30.05R
ONTARIO        CLEAR     55   7  14 NE28G53   30.03R
RIVERSIDE      CLEAR     56  11  16 NE21G35   30.06S
PALM SPRINGS   CLEAR     57   8  14 NW10      30.13R
EL CENTRO NAS  CLEAR     55  20  25 N15       30.04R
IMPERIAL       CLEAR     55  30  38 N10       30.02R
BLYTHE         PTCLDY    57  19  22 N20G31    29.99S
NEEDLES        CLEAR     55  16  21 N15       30.07R
$$

NVZ020-UTZ003-030500-
SOUTHERN NEVADA-UTAH

CITY           SKY/WX    TMP DP  RH WIND       PRES   REMARKS
LAS VEGAS      CLEAR     48  11  22 N16       30.19R
SALT LAKE CITY CLEAR     28  23  81 SW5       30.28F WCI  23
$$

NMZ009-TXZ055-030500-
NEW MEXICO-WEST TEXAS

CITY           SKY/WX    TMP DP  RH WIND       PRES   REMARKS
ALBUQUERQUE    CLOUDY    36  23  59 E29       30.04R WCI  23
EL PASO        LGT RAIN  51  29  42 E8        29.94R
$$


........................KEY........................
SKY/WX - SKY CONDITION/WEATHER
TMP    - TEMPERATURE IN FAHRENHEIT
DP     - DEW POINT IN FAHRENHEIT
RH     - RELATIVE HUMIDITY IN PERCENT
WIND   - DIRECTION AND SPEED IN MILES PER HOUR (MPH)
VRB    - VARIABLE WIND DIRECTION
PRES   - MEAN SEA LEVEL PRESSURE IN INCHES OF MERCURY
         F - FALLING PRESSURE   R - RISING PRESSURE
         S - STEADY PRESSURE
VSB    - VISIBILITY IN MILES
HX     - HEAT INDEX IN FAHRENHEIT
WCI    - WIND CHILL INDEX IN FAHRENHEIT
TC     - TEMPERATURE IN CELSIUS WHICH IS ALSO KNOWN AS
         TEMPERATURE IN CENTIGRADE
AFB    - AIR FORCE BASE
         LUKE AFB IS LUKE AIR FORCE BASE
         DAVIS-MONTHAN IS DAVIS-MONTHAN AIR FORCE BASE
NAS    - NAVAL AIR STATION
         EL CENTRO NAS IS EL CENTRO NAVAL AIR STATION
N/A    - NOT AVAILABLE





USA.gov is the U.S. government's official web portal to all federal, state and local government web resources and services.